Tracking 25534 objects as of 28-Jan-2022
HD Live streaming from Space Station
objects crossing your sky now

STARLINK-3264

Track STARLINK-3264 now!
10-day predictions
STARLINK-3264 is classified as:


NORAD ID: 50198
Int'l Code: 2021-125AU
Perigee: 355.8 km
Apogee: 357.7 km
Inclination: 53.2 °
Period: 91.5 minutes
Semi major axis: 6727 km
RCS: Unknown
Launch date: December 18, 2021
Source: United States (US)
Launch site: AIR FORCE WESTERN TEST RANGE (AFWTR)
aabbcc
Your satellite tracking list
Your tracking list is empty




NASA's NSSDC Master Catalog

Two Line Element Set (TLE):
1 50198U 21125AU  22028.50001157 -.00075070  00000-0 -53397-3 0  9998
2 50198  53.2156 162.7675 0001410  45.2534 145.6409 15.73254829  3671
Source of the keplerian elements: AFSPC